Location: Unspecified
(42.0334°N, 93.6656°W)
Time: 21:30:22
(UTC-05:00)

Amateur Radio Satellites - All Passes

Search period start: 02 September 2015 21:00
Search period end: 03 September 2015 21:00
Location: Unspecified, 42.0334°N, 93.6656°W

Satellite Date Start Highest point End Downlink Frequencies (MHz)
Time Altitude Azimuth
BRITE-PL 02 Sep 21:06:34 21:10:01 21° 270° (W) 21:13:34 437.365/2234.400
CUTE 1.7 + AOD 2 02 Sep 21:21:31 21:25:44 54° 260° (W) 21:29:57 437.475
ZACube-1 02 Sep 21:23:15 21:26:58 25° 68° (ENE) 21:30:47 437.345
GOMX 1 02 Sep 21:24:07 21:27:56 25° 269° (W) 21:31:52 467.674
DOVE 4 02 Sep 21:26:24 21:30:46 38° 265° (W) 21:35:22 437.250
FUNcube-1 02 Sep 21:27:32 21:31:20 27° 68° (ENE) 21:35:13 145.935
PRISM 02 Sep 21:27:44 21:31:17 28° 291° (WNW) 21:34:46 437.425
CUBEBUG 2 02 Sep 21:31:41 21:36:12 51° 73° (ENE) 21:40:50 437.445
UWE-3 02 Sep 21:34:17 21:38:37 42° 72° (ENE) 21:43:05 435.000/436.395/437.385
CANX-2 02 Sep 21:36:16 21:40:12 33° 264° (W) 21:44:05 2200.000
HUMSAT D 02 Sep 21:51:01 21:54:03 19° 67° (ENE) 21:57:11 437.325/437.525
SEEDS 02 Sep 21:54:00 21:57:46 30° 265° (W) 22:01:30 437.485
CINEMA 3 02 Sep 21:55:54 22:00:24 43° 263° (W) 22:05:06 145.822/145.860
DX 1 02 Sep 22:08:13 22:11:04 18° 65° (ENE) 22:14:02 434.975-435.025
Oscar 11 02 Sep 22:10:47 22:15:06 68° 259° (W) 22:19:27 145.826/435.025
COMPASS 1 02 Sep 22:12:37 22:16:05 24° 266° (W) 22:19:29 437.405
UKube-1 02 Sep 22:17:05 22:20:07 20° 66° (ENE) 22:23:18 .
AAUSAT CUBESAT 2 02 Sep 22:20:57 22:24:20 23° 267° (W) 22:27:38 437.432
DELFI C3 02 Sep 22:28:22 22:32:24 64° 259° (W) 22:36:25 145.870
Cosmos 2491 02 Sep 22:30:38 22:37:16 24° 278° (W) 22:43:31 435.465 / 435.565
CUBEBUG 1 02 Sep 22:34:02 22:35:51 13° 63° (ENE) 22:37:51 437.445
ESTCUBE 1 02 Sep 22:34:21 22:37:04 16° 65° (ENE) 22:39:57 437.505/2401.250
YUBILEINY 02 Sep 22:35:48 22:44:19 51° 286° (WNW) 22:52:50 435.215
AISAT 02 Sep 22:38:31 22:42:00 24° 67° (ENE) 22:45:37 437.250
HO-68 02 Sep 22:42:36 22:47:14 17° 272° (W) 22:51:30 435.675
50 SAT 02 Sep 22:51:41 22:55:16 34° 71° (ENE) 22:58:53 437.505
UNISAT 6 02 Sep 22:55:27 22:58:45 20° 91° (E) 23:02:06 437.425
RS-15 02 Sep 22:56:47 23:06:33 30° 25° (NNE) 23:16:51 29.354- 29.394
ZACube-1 02 Sep 22:59:02 23:03:11 33° 265° (W) 23:07:20 437.345
FUNcube-1 02 Sep 23:03:29 23:07:33 31° 265° (W) 23:11:37 145.935
VELOX 1 02 Sep 23:05:18 23:09:27 43° 72° (ENE) 23:13:40 145.980
CUBEBUG 2 02 Sep 23:10:06 23:13:14 17° 271° (W) 23:16:14 437.445
UWE-3 02 Sep 23:11:54 23:15:22 20° 269° (W) 23:18:45 435.000/436.395/437.385
CUSAT 1 02 Sep 23:16:34 23:18:41 14° 80° (E) 23:21:20 437.405
AUBIESAT-1 02 Sep 23:17:14 23:18:59 13° 94° (E) 23:20:52 437.475
Cosmos 2504 02 Sep 23:17:43 23:25:28 51° 90° (E) 23:33:43 435.465 / 435.565
TIGRISAT 02 Sep 23:22:26 23:26:40 37° 96° (E) 23:30:47 435.000
M-CUBED/EXP-1 PRIME 02 Sep 23:24:00 23:26:48 20° 97° (E) 23:29:33 437.505
HUMSAT D 02 Sep 23:25:24 23:29:30 40° 262° (W) 23:33:36 437.325/437.525
BEESAT 3 02 Sep 23:30:04 23:34:01 50° 53° (NE) 23:37:54 437.485
BUGSAT 1 02 Sep 23:37:43 23:38:55 11° 88° (E) 23:40:24 437.445
POLYITAN 1 02 Sep 23:38:27 23:41:37 20° 92° (E) 23:44:53 437.675
DUCHIFAT 1 02 Sep 23:38:36 23:41:37 19° 92° (E) 23:44:45 145.980
POPSAT HIP 1 02 Sep 23:40:05 23:43:17 21° 93° (E) 23:46:35 437.405
ANTELSAT 02 Sep 23:40:19 23:44:50 60° 100° (E) 23:49:13 437.575/2403.000
DX 1 02 Sep 23:42:50 23:46:59 44° 261° (W) 23:51:10 434.975-435.025
BEESAT 2 02 Sep 23:45:31 23:49:31 55° 53° (NE) 23:53:28 435.950
UKube-1 02 Sep 23:51:57 23:56:00 39° 262° (W) 00:00:04 .
SPROUT 02 Sep 23:54:36 23:58:14 28° 69° (ENE) 00:01:56 437.525
NANOSAT C BR1 02 Sep 23:56:24 00:00:12 30° 96° (E) 00:04:00 145.865
QB50P2 02 Sep 23:57:11 00:01:03 33° 96° (E) 00:04:57 145.880/145.840
DANDE 03 Sep 00:00:06 00:02:54 20° 85° (E) 00:06:25 436.750
CUBEBUG 1 03 Sep 00:07:25 00:11:43 65° 259° (W) 00:16:02 437.445
ESTCUBE 1 03 Sep 00:09:12 00:13:34 52° 260° (W) 00:17:58 437.505/2401.250
QB50P1 03 Sep 00:10:50 00:14:58 45° 99° (E) 00:19:05 145.935-145.965
AISAT 03 Sep 00:14:28 00:18:26 32° 264° (W) 00:22:26 437.250
SO-50 03 Sep 00:26:26 00:30:23 27° 113° (ESE) 00:34:32 436.795
50 SAT 03 Sep 00:27:06 00:29:55 18° 268° (W) 00:32:37 437.505
UNISAT 6 03 Sep 00:31:27 00:35:44 39° 289° (WNW) 00:39:51 437.425
AIST 2 03 Sep 00:37:25 00:41:23 40° 51° (NE) 00:45:17 435.215
VELOX 1 03 Sep 00:43:12 00:46:15 18° 269° (W) 00:49:10 145.980
TISAT 1 03 Sep 00:48:48 00:52:57 62° 74° (ENE) 00:57:09 437.305
AUBIESAT-1 03 Sep 00:50:23 00:54:06 42° 294° (WNW) 00:57:30 437.475
CUSAT 1 03 Sep 00:56:12 01:00:15 54° 285° (WNW) 01:05:43 437.405
M-CUBED/EXP-1 PRIME 03 Sep 00:58:14 01:01:43 29° 296° (WNW) 01:04:55 437.505
TIGRISAT 03 Sep 00:59:38 01:03:12 22° 293° (WNW) 01:06:35 435.000
BEESAT 03 Sep 01:07:27 01:10:44 19° 65° (ENE) 01:14:09 436.000
BEESAT 3 03 Sep 01:09:13 01:11:34 15° 249° (WSW) 01:13:45 437.485
RS-15 03 Sep 01:09:37 01:21:28 75° 53° (NE) 01:33:45 29.354- 29.394
Cosmos 2504 03 Sep 01:10:27 01:18:00 37° 291° (WNW) 01:25:44 435.465 / 435.565
BUGSAT 1 03 Sep 01:10:38 01:14:53 64° 286° (WNW) 01:19:05 437.445
DUCHIFAT 1 03 Sep 01:13:35 01:17:35 37° 289° (WNW) 01:21:31 145.980
POLYITAN 1 03 Sep 01:13:40 01:17:39 35° 289° (WNW) 01:21:33 437.675
POPSAT HIP 1 03 Sep 01:15:20 01:19:16 35° 289° (WNW) 01:23:10 437.405
PCSat 03 Sep 01:17:43 01:22:23 31° 111° (ESE) 01:27:10 145.827
ANTELSAT 03 Sep 01:18:33 01:21:08 15° 297° (WNW) 01:23:31 437.575/2403.000
BEESAT 2 03 Sep 01:24:59 01:27:08 14° 250° (WSW) 01:29:07 435.950
SPROUT 03 Sep 01:30:36 01:34:16 26° 266° (W) 01:37:54 437.525
GONETS M04 03 Sep 01:31:22 01:35:52 16° 78° (ENE) 01:40:54
NANOSAT C BR1 03 Sep 01:32:24 01:35:54 24° 292° (WNW) 01:39:18 145.865
SWISSCUBE 03 Sep 01:32:34 01:36:53 36° 69° (ENE) 01:41:14 437.505
QB50P2 03 Sep 01:33:22 01:36:47 23° 292° (WNW) 01:40:05 145.880/145.840
DANDE 03 Sep 01:42:23 01:45:46 28° 294° (WNW) 01:50:00 436.750
QB50P1 03 Sep 01:47:37 01:50:31 17° 294° (WNW) 01:53:14 145.935-145.965
SO-50 03 Sep 02:06:12 02:10:47 41° 311° (NW) 02:15:27 436.795
ITUPSAT 1 03 Sep 02:11:46 02:16:31 79° 75° (ENE) 02:21:19 437.325
AIST 2 03 Sep 02:16:34 02:19:42 20° 247° (WSW) 02:22:42 435.215
Oscar 19 03 Sep 02:17:14 02:22:07 41° 97° (E) 02:27:01 437.125/150
TISAT 1 03 Sep 02:27:41 02:29:12 11° 272° (W) 02:30:29 437.305
Cosmos 2499 03 Sep 02:42:44 02:44:21 11° 74° (ENE) 02:46:44 435.465 / 435.565
BEESAT 03 Sep 02:43:37 02:48:15 49° 261° (W) 02:52:53 436.000
JAS-2 03 Sep 02:50:25 02:54:01 16° 83° (E) 02:57:46 435.910
STARS 03 Sep 02:52:04 02:55:19 21° 66° (ENE) 02:58:42 437.465
PCSat 03 Sep 03:00:39 03:05:43 39° 308° (NW) 03:10:48 145.827
VERMONT LUNAR 03 Sep 03:10:28 03:12:58 24° 158° (SSE) 03:15:28 437.305
SWISSCUBE 03 Sep 03:10:53 03:14:49 25° 266° (W) 03:18:40 437.505
KKS-1 03 Sep 03:15:33 03:19:55 61° 74° (ENE) 03:24:21 437.445
Gurwin Techsat 1B 03 Sep 03:17:23 03:22:30 47° 98° (E) 03:27:37 435.225
ITAMSAT 1 03 Sep 03:21:22 03:26:14 40° 98° (E) 03:31:08 435.822/435.867
GONETS M04 03 Sep 03:22:49 03:31:30 84° 96° (E) 03:40:16
RS-15 03 Sep 03:22:58 03:33:14 34° 253° (WSW) 03:43:20 29.354- 29.394
O/OREOS (USA 219) 03 Sep 03:44:56 03:47:57 17° 52° (NE) 03:51:05 437.305
MOZHAYETS 4 03 Sep 03:46:44 03:50:00 20° 66° (ENE) 03:53:23
ITUPSAT 1 03 Sep 03:53:41 03:55:05 11° 273° (W) 03:56:11 437.325
Oscar 19 03 Sep 03:57:00 04:01:18 26° 294° (WNW) 04:05:29 437.125/150
AO-7 03 Sep 04:07:10 04:13:36 26° 92° (E) 04:20:19 29.400- 29.500
HORYU 2 03 Sep 04:19:10 04:22:07 18° 91° (E) 04:25:12 437.375
STARS 03 Sep 04:27:24 04:31:32 38° 262° (W) 04:35:41 437.465
Cosmos 2499 03 Sep 04:27:32 04:35:51 62° 92° (E) 04:44:35 435.465 / 435.565
JAS-2 03 Sep 04:33:19 04:40:19 84° 285° (WNW) 04:46:25 435.910
PHONESAT 2.4 03 Sep 04:40:43 04:42:45 15° 151° (SSE) 04:44:51 2401.200-2431.200
VERMONT LUNAR 03 Sep 04:46:09 04:49:06 60° 174° (S) 04:52:03 437.305
KKS-1 03 Sep 04:54:51 04:57:02 13° 271° (W) 04:58:59 437.445
Gurwin Techsat 1B 03 Sep 04:58:01 05:02:14 24° 295° (WNW) 05:06:19 435.225
ITAMSAT 1 03 Sep 05:01:17 05:05:34 26° 294° (WNW) 05:09:46 435.822/435.867
MOZHAYETS 4 03 Sep 05:22:32 05:26:57 43° 262° (W) 05:31:21
GONETS M04 03 Sep 05:23:10 05:29:39 22° 299° (WNW) 05:35:49
O/OREOS (USA 219) 03 Sep 05:23:16 05:27:48 56° 251° (WSW) 05:32:17 437.305
CUBESAT XI-V 03 Sep 05:46:40 05:50:38 30° 69° (ENE) 05:54:39 437.345
HORYU 2 03 Sep 05:54:46 05:59:01 44° 289° (WNW) 06:03:12 437.375
AO-7 03 Sep 05:58:56 06:07:12 71° 292° (WNW) 06:15:24 29.400- 29.500
PHONESAT 2.4 03 Sep 06:16:54 06:20:11 46° 166° (SSE) 06:23:29 2401.200-2431.200
JAS-2 03 Sep 06:20:10 06:24:16 16° 305° (NW) 06:27:50 435.910
Cosmos 2499 03 Sep 06:22:08 06:29:40 31° 294° (WNW) 06:37:15 435.465 / 435.565
VERMONT LUNAR 03 Sep 06:22:29 06:25:24 52° 190° (S) 06:28:18 437.305
STRAND 1 03 Sep 06:37:38 06:42:00 30° 67° (ENE) 06:46:27 437.568
PRISM 03 Sep 06:43:22 06:46:16 20° 67° (ENE) 06:49:17 437.425
YUBILEINY 03 Sep 06:49:56 06:55:26 18° 58° (ENE) 07:01:21 435.215
Cubesat XI-IV 03 Sep 06:59:18 07:04:05 33° 96° (E) 07:08:54 437.490
AIST 1 03 Sep 07:13:40 07:14:49 11° 85° (E) 07:16:13
CUBESAT XI-V 03 Sep 07:24:07 07:28:04 27° 266° (W) 07:31:58 437.345
BRITE-PL 03 Sep 07:31:53 07:35:02 16° 87° (E) 07:38:28 437.365/2234.400
Cosmos 2491 03 Sep 07:42:03 07:46:34 16° 78° (ENE) 07:51:37 435.465 / 435.565
CUTE-I 03 Sep 07:43:07 07:48:28 83° 104° (ESE) 07:53:49 437.470
GOMX 1 03 Sep 07:48:21 07:50:29 13° 85° (E) 07:52:57 467.674
ISS 03 Sep 07:53:27 07:56:05 23° 135° (SE) 07:58:45 145.825
AO-7 03 Sep 07:53:39 07:58:42 17° 311° (NW) 08:03:24 29.400- 29.500
PHONESAT 2.4 03 Sep 07:54:32 07:57:56 68° 182° (S) 08:01:19 2401.200-2431.200
VERMONT LUNAR 03 Sep 07:59:19 08:01:28 18° 206° (SSW) 08:03:35 437.305
STRAND 1 03 Sep 08:16:33 08:21:09 33° 264° (W) 08:25:44 437.568
PRISM 03 Sep 08:17:44 08:21:30 35° 262° (W) 08:25:15 437.425
HO-68 03 Sep 08:20:48 08:24:29 15° 86° (E) 08:28:35 435.675
Cubesat XI-IV 03 Sep 08:39:27 08:44:09 32° 293° (WNW) 08:48:48 437.490
YUBILEINY 03 Sep 08:45:01 08:53:55 84° 81° (E) 09:02:44 435.215
AIST 1 03 Sep 08:47:47 08:51:58 59° 280° (W) 08:56:12
SO-50 03 Sep 08:56:58 09:01:21 31° 45° (NE) 09:05:41 436.795
Cosmos 2504 03 Sep 09:05:20 09:10:17 17° 58° (ENE) 09:15:29 435.465 / 435.565
CUTE 1.7 + AOD 2 03 Sep 09:06:44 09:10:08 24° 93° (E) 09:13:35 437.475
BRITE-PL 03 Sep 09:08:33 09:14:07 76° 285° (WNW) 09:19:49 437.365/2234.400
CANX-2 03 Sep 09:20:48 09:24:45 38° 97° (E) 09:28:41 2200.000
GOMX 1 03 Sep 09:23:51 09:29:22 87° 284° (WNW) 09:34:52 467.674
DOVE 4 03 Sep 09:24:21 09:29:38 61° 99° (E) 09:34:49 437.250
CUTE-I 03 Sep 09:25:05 09:27:56 14° 300° (WNW) 09:30:32 437.470
CUBEBUG 2 03 Sep 09:25:21 09:26:15 11° 85° (E) 09:27:27 437.445
ISS 03 Sep 09:29:12 09:32:20 44° 331° (NNW) 09:35:29 145.825
PHONESAT 2.4 03 Sep 09:32:27 09:35:36 36° 199° (SSW) 09:38:46 2401.200-2431.200
Cosmos 2491 03 Sep 09:33:32 09:42:14 84° 96° (E) 09:51:00 435.465 / 435.565
SEEDS 03 Sep 09:37:20 09:41:18 41° 98° (E) 09:45:15 437.485
CUSAT 1 03 Sep 09:48:26 09:54:29 25° 64° (ENE) 10:01:02 437.405
CINEMA 3 03 Sep 09:50:15 09:55:04 47° 97° (E) 09:59:45 145.822/145.860
COMPASS 1 03 Sep 09:54:34 09:58:38 50° 99° (E) 10:02:39 437.405
UNISAT 6 03 Sep 09:54:44 09:58:11 21° 66° (ENE) 10:01:45 437.425
Oscar 11 03 Sep 09:58:25 10:01:38 21° 92° (E) 10:04:56 145.826/435.025
AAUSAT CUBESAT 2 03 Sep 10:02:19 10:06:22 52° 99° (E) 10:10:24 437.432
AUBIESAT-1 03 Sep 10:03:07 10:06:59 26° 63° (ENE) 10:10:51 437.475
PCSat 03 Sep 10:04:41 10:09:26 30° 48° (NE) 10:14:13 145.827
HO-68 03 Sep 10:06:06 10:13:22 86° 106° (ESE) 10:20:34 435.675
DELFI C3 03 Sep 10:07:57 10:10:22 16° 91° (E) 10:12:54 145.870
M-CUBED/EXP-1 PRIME 03 Sep 10:10:39 10:14:59 36° 66° (ENE) 10:19:17 437.505
TIGRISAT 03 Sep 10:21:11 10:25:26 36° 70° (ENE) 10:29:46 435.000
DUCHIFAT 1 03 Sep 10:31:55 10:34:27 16° 65° (ENE) 10:37:09 145.980
POLYITAN 1 03 Sep 10:32:18 10:35:04 17° 66° (ENE) 10:37:59 437.675
POPSAT HIP 1 03 Sep 10:33:45 10:36:32 18° 66° (ENE) 10:39:26 437.405
DANDE 03 Sep 10:35:43 10:42:40 36° 70° (ENE) 10:50:24 436.750
SO-50 03 Sep 10:37:24 10:42:00 39° 244° (WSW) 10:46:26 436.795
ANTELSAT 03 Sep 10:39:05 10:43:40 57° 74° (ENE) 10:48:20 437.575/2403.000
CUTE 1.7 + AOD 2 03 Sep 10:42:23 10:46:04 29° 290° (WNW) 10:49:40 437.475
YUBILEINY 03 Sep 10:43:40 10:49:46 20° 280° (W) 10:55:24 435.215
ZACube-1 03 Sep 10:46:57 10:51:17 46° 98° (E) 10:55:30 437.345
NANOSAT C BR1 03 Sep 10:49:28 10:52:54 25° 68° (ENE) 10:56:26 145.865
BRITE-PL 03 Sep 10:49:43 10:51:51 12° 300° (WNW) 10:53:42 437.365/2234.400
QB50P2 03 Sep 10:50:35 10:54:08 27° 69° (ENE) 10:57:47 145.880/145.840
FUNcube-1 03 Sep 10:51:01 10:55:22 50° 99° (E) 10:59:36 145.935
Cosmos 2504 03 Sep 10:55:40 11:04:12 81° 80° (E) 11:12:09 435.465 / 435.565
CANX-2 03 Sep 10:57:23 11:00:26 19° 293° (WNW) 11:03:21 2200.000
CUBEBUG 2 03 Sep 10:58:57 11:03:39 76° 283° (WNW) 11:08:09 437.445
UWE-3 03 Sep 11:00:01 11:04:38 87° 102° (ESE) 11:09:05 435.000/436.395/437.385
DOVE 4 03 Sep 11:03:08 11:06:55 19° 296° (WNW) 11:10:30 437.250
QB50P1 03 Sep 11:03:51 11:07:43 35° 71° (ENE) 11:11:39 145.935-145.965
GOMX 1 03 Sep 11:04:04 11:06:46 13° 299° (WNW) 11:09:12 467.674
ISS 03 Sep 11:07:10 11:09:22 17° 351° (N) 11:11:34 145.825
HUMSAT D 03 Sep 11:09:04 11:12:47 30° 95° (E) 11:16:30 437.325/437.525
PHONESAT 2.4 03 Sep 11:12:44 11:12:55 10° 213° (SSW) 11:13:01 2401.200-2431.200
SEEDS 03 Sep 11:13:57 11:16:48 17° 294° (WNW) 11:19:30 437.485
CINEMA 3 03 Sep 11:28:09 11:31:55 21° 295° (WNW) 11:35:29 145.822/145.860
CUSAT 1 03 Sep 11:29:54 11:37:53 81° 262° (W) 11:46:05 437.405
UNISAT 6 03 Sep 11:30:11 11:34:40 43° 262° (W) 11:39:11 437.425
DX 1 03 Sep 11:30:47 11:34:36 29° 96° (E) 11:38:26 434.975-435.025
COMPASS 1 03 Sep 11:31:32 11:33:54 15° 295° (WNW) 11:36:06 437.405
Cosmos 2491 03 Sep 11:33:55 11:40:24 22° 299° (WNW) 11:46:33 435.465 / 435.565
Oscar 11 03 Sep 11:33:59 11:37:56 35° 289° (WNW) 11:41:48 145.826/435.025
AUBIESAT-1 03 Sep 11:37:07 11:41:31 37° 258° (WSW) 11:45:48 437.475
UKube-1 03 Sep 11:38:50 11:42:42 31° 96° (E) 11:46:36 .
AAUSAT CUBESAT 2 03 Sep 11:39:19 11:41:34 14° 295° (WNW) 11:43:39 437.432
DELFI C3 03 Sep 11:41:54 11:45:38 39° 288° (WNW) 11:49:19 145.870
M-CUBED/EXP-1 PRIME 03 Sep 11:45:40 11:49:46 27° 261° (W) 11:53:44 437.505
PCSat 03 Sep 11:47:53 11:53:01 43° 247° (WSW) 11:58:05 145.827
HO-68 03 Sep 11:55:16 12:00:19 20° 304° (NW) 12:05:06 435.675
CUBEBUG 1 03 Sep 11:56:19 11:59:44 22° 93° (E) 12:03:16 437.445
TIGRISAT 03 Sep 11:58:25 12:02:16 24° 267° (W) 12:06:03 435.000
50 SAT 03 Sep 12:00:18 12:04:02 46° 99° (E) 12:07:44 437.505
BUGSAT 1 03 Sep 12:00:41 12:04:46 89° 255° (WSW) 12:08:56 437.445
ESTCUBE 1 03 Sep 12:01:32 12:05:31 31° 96° (E) 12:09:32 437.505/2401.250
AISAT 03 Sep 12:04:03 12:08:21 44° 98° (E) 12:12:40 437.250
DUCHIFAT 1 03 Sep 12:05:47 12:09:53 48° 261° (W) 12:14:02 145.980
POLYITAN 1 03 Sep 12:06:33 12:10:39 44° 262° (W) 12:14:48 437.675
POPSAT HIP 1 03 Sep 12:08:00 12:12:05 44° 261° (W) 12:16:12 437.405
ANTELSAT 03 Sep 12:17:59 12:20:52 15° 271° (W) 12:23:34 437.575/2403.000
DANDE 03 Sep 12:18:27 12:26:05 56° 266° (W) 12:34:19 436.750
ZACube-1 03 Sep 12:24:14 12:27:16 18° 295° (WNW) 12:30:09 437.345
NANOSAT C BR1 03 Sep 12:24:53 12:28:38 29° 265° (W) 12:32:21 145.865
QB50P2 03 Sep 12:26:18 12:29:59 27° 265° (W) 12:33:37 145.880/145.840
FUNcube-1 03 Sep 12:28:24 12:31:18 17° 295° (WNW) 12:34:00 145.935
VELOX 1 03 Sep 12:31:17 12:35:47 84° 103° (ESE) 12:40:16 145.980
UWE-3 03 Sep 12:39:21 12:40:28 11° 299° (WNW) 12:41:20 435.000/436.395/437.385
QB50P1 03 Sep 12:40:30 12:43:43 20° 268° (W) 12:46:50 145.935-145.965
ISS 03 Sep 12:44:24 12:46:41 18° 11° (N) 12:49:00 145.825
HUMSAT D 03 Sep 12:45:00 12:48:23 23° 292° (WNW) 12:51:39 437.325/437.525
Cosmos 2504 03 Sep 12:49:32 12:55:26 21° 280° (W) 13:00:44 435.465 / 435.565
Gurwin Techsat 1B 03 Sep 13:03:42 13:04:55 11° 58° (ENE) 13:06:25 435.225
JAS-2 03 Sep 13:05:18 13:07:12 11° 51° (NE) 13:09:35 435.910
DX 1 03 Sep 13:07:03 13:10:46 27° 292° (WNW) 13:14:25 434.975-435.025
CUSAT 1 03 Sep 13:14:30 13:19:35 18° 277° (W) 13:24:16 437.405
UKube-1 03 Sep 13:15:10 13:18:42 24° 293° (WNW) 13:22:10 .
SPROUT 03 Sep 13:15:56 13:20:10 50° 99° (E) 13:24:23 437.525
CUBEBUG 1 03 Sep 13:32:09 13:36:11 34° 290° (WNW) 13:40:11 437.445
GONETS M04 03 Sep 13:32:42 13:40:57 43° 72° (ENE) 13:49:17
Oscar 19 03 Sep 13:34:19 13:39:24 62° 73° (ENE) 13:44:33 437.125/150
50 SAT 03 Sep 13:36:10 13:38:11 14° 295° (WNW) 13:40:02 437.505
ESTCUBE 1 03 Sep 13:38:31 13:42:18 26° 292° (WNW) 13:45:58 437.505/2401.250
AISAT 03 Sep 13:41:25 13:44:38 19° 295° (WNW) 13:47:43 437.250
DANDE 03 Sep 14:06:48 14:08:10 10° 280° (W) 14:08:48 436.750
TISAT 1 03 Sep 14:08:15 14:12:32 76° 285° (WNW) 14:16:48 437.305
VELOX 1 03 Sep 14:10:34 14:11:44 11° 299° (WNW) 14:12:40 145.980
ITUPSAT 1 03 Sep 14:12:50 14:16:12 19° 92° (E) 14:19:42 437.325
Cosmos 2499 03 Sep 14:19:40 14:26:05 23° 61° (ENE) 14:32:28 435.465 / 435.565
ISS 03 Sep 14:20:26 14:23:39 54° 30° (NNE) 14:26:50 145.825
Gurwin Techsat 1B 03 Sep 14:38:48 14:44:06 77° 75° (ENE) 14:49:26 435.225
ITAMSAT 1 03 Sep 14:39:40 14:44:46 65° 73° (ENE) 14:49:55 435.822/435.867
JAS-2 03 Sep 14:43:18 14:50:41 51° 69° (ENE) 14:58:12 435.910
BEESAT 03 Sep 14:43:20 14:47:48 40° 98° (E) 14:52:17 436.000
SPROUT 03 Sep 14:53:09 14:55:53 16° 295° (WNW) 14:58:26 437.525
BEESAT 3 03 Sep 14:59:54 15:03:58 85° 122° (ESE) 15:08:04 437.485
AO-7 03 Sep 15:06:26 15:13:51 39° 61° (ENE) 15:21:24 29.400- 29.500
KKS-1 03 Sep 15:08:34 15:09:53 11° 88° (E) 15:11:27 437.445
SWISSCUBE 03 Sep 15:09:33 15:14:20 81° 103° (ESE) 15:19:05 437.505
Oscar 19 03 Sep 15:15:56 15:19:16 16° 271° (W) 15:22:23 437.125/150
BEESAT 2 03 Sep 15:16:28 15:20:34 86° 301° (WNW) 15:24:42 435.950
HORYU 2 03 Sep 15:18:00 15:21:04 19° 65° (ENE) 15:24:16 437.375
GONETS M04 03 Sep 15:29:40 15:37:51 43° 272° (W) 15:45:55
RS-15 03 Sep 15:34:17 15:44:11 44° 110° (ESE) 15:54:37 29.354- 29.394
ITUPSAT 1 03 Sep 15:49:48 15:54:21 45° 289° (WNW) 15:58:52 437.325
ISS 03 Sep 15:57:29 15:59:49 18° 226° (SW) 16:02:06 145.825
Cosmos 2499 03 Sep 16:11:46 16:20:25 78° 265° (W) 16:28:24 435.465 / 435.565
AIST 2 03 Sep 16:13:21 16:17:35 75° 121° (ESE) 16:21:50 435.215
STARS 03 Sep 16:16:26 16:20:33 36° 97° (E) 16:24:39 437.465
ITAMSAT 1 03 Sep 16:21:40 16:24:49 16° 271° (W) 16:27:44 435.822/435.867
BEESAT 03 Sep 16:21:41 16:25:26 23° 294° (WNW) 16:29:04 436.000
Gurwin Techsat 1B 03 Sep 16:22:07 16:24:47 13° 273° (W) 16:27:10 435.225
JAS-2 03 Sep 16:28:48 16:35:53 37° 267° (W) 16:42:58 435.910
BEESAT 3 03 Sep 16:40:22 16:42:29 13° 322° (NW) 16:44:29 437.485
KKS-1 03 Sep 16:42:35 16:47:05 69° 286° (WNW) 16:51:31 437.445
SWISSCUBE 03 Sep 16:49:35 16:51:36 12° 299° (WNW) 16:53:23 437.505
HORYU 2 03 Sep 16:53:04 16:57:24 45° 261° (W) 17:01:43 437.375
BEESAT 2 03 Sep 16:57:22 16:59:17 13° 323° (NW) 17:01:04 435.950
AO-7 03 Sep 16:58:24 17:06:30 52° 259° (W) 17:14:34 29.400- 29.500
MOZHAYETS 4 03 Sep 17:17:04 17:21:22 41° 97° (E) 17:25:41
CUTE-I 03 Sep 17:27:33 17:31:10 20° 63° (ENE) 17:34:58 437.470
RS-15 03 Sep 17:45:33 17:56:21 58° 313° (NW) 18:07:37 29.354- 29.394
STARS 03 Sep 17:53:18 17:56:47 22° 293° (WNW) 18:00:10 437.465
AIST 2 03 Sep 17:54:02 17:56:40 16° 321° (NW) 17:59:13 435.215
O/OREOS (USA 219) 03 Sep 17:58:30 18:01:09 16° 100° (E) 18:03:59 437.305
Cosmos 2499 03 Sep 18:07:47 18:12:11 15° 284° (WNW) 18:15:54 435.465 / 435.565
Cubesat XI-IV 03 Sep 18:21:38 18:26:49 58° 72° (ENE) 18:32:03 437.490
BRITE-PL 03 Sep 18:44:13 18:46:40 15° 62° (ENE) 18:49:25 437.365/2234.400
HO-68 03 Sep 18:51:49 18:55:03 14° 52° (NE) 18:58:39 435.675
AIST 1 03 Sep 18:54:28 18:58:24 33° 75° (ENE) 19:02:23
MOZHAYETS 4 03 Sep 18:54:56 18:58:21 20° 294° (WNW) 19:01:38
GOMX 1 03 Sep 18:57:41 18:59:34 13° 60° (ENE) 19:01:44 467.674
CUTE-I 03 Sep 19:05:37 19:10:51 59° 259° (W) 19:16:06 437.470
CUBESAT XI-V 03 Sep 19:19:19 19:23:59 71° 102° (ESE) 19:28:38 437.345
O/OREOS (USA 219) 03 Sep 19:35:44 19:40:10 51° 297° (WNW) 19:44:40 437.305
Cosmos 2491 03 Sep 19:43:33 19:51:44 43° 72° (ENE) 20:00:01 435.465 / 435.565
YUBILEINY 03 Sep 19:53:16 19:58:45 20° 79° (E) 20:04:43 435.215
PRISM 03 Sep 19:59:17 20:02:50 28° 96° (E) 20:06:26 437.425
CUTE 1.7 + AOD 2 03 Sep 20:00:24 20:03:25 19° 67° (ENE) 20:06:32 437.475
RS-15 03 Sep 20:03:05 20:12:03 26° 344° (NNW) 20:21:11 29.354- 29.394
Cubesat XI-IV 03 Sep 20:03:39 20:07:22 18° 270° (W) 20:10:53 437.490
CANX-2 03 Sep 20:14:08 20:17:51 30° 70° (ENE) 20:21:36 2200.000
BRITE-PL 03 Sep 20:20:14 20:24:38 62° 260° (W) 20:29:24 437.365/2234.400
CUBEBUG 2 03 Sep 20:24:08 20:25:29 11° 61° (ENE) 20:27:06 437.445
STRAND 1 03 Sep 20:25:52 20:31:01 80° 105° (ESE) 20:36:08 437.568
SEEDS 03 Sep 20:29:42 20:33:26 31° 71° (ENE) 20:37:12 437.485
DOVE 4 03 Sep 20:30:03 20:34:39 60° 74° (ENE) 20:39:37 437.250
GOMX 1 03 Sep 20:32:23 20:36:58 80° 259° (WSW) 20:41:57 467.674
AIST 1 03 Sep 20:32:36 20:35:52 20° 271° (W) 20:39:02
HO-68 03 Sep 20:34:32 20:41:37 68° 70° (ENE) 20:48:46 435.675
COMPASS 1 03 Sep 20:46:00 20:49:50 36° 72° (ENE) 20:53:43 437.405
Oscar 11 03 Sep 20:54:02 20:56:58 18° 66° (ENE) 21:00:01 145.826/435.025
DELFI C3 03 Sep 20:56:49 20:58:05 11° 64° (ENE) 20:59:33 145.870
